Terminal Aerodrome Forecast
Issued by NWS

Home | Current Version | Previous Version | Graphics & Text | Print | Product List | Glossary On
Versions: 1 2 3 4 5 6 7 8 9 10 11 12 13 14 15 16 17
000
FTUS43 KABR 312008 AAA
TAFATY
TAF AMD
KATY 312008Z 3120/0118 13014KT P6SM SCT035 OVC080
      TEMPO 3121/3123 P6SM -SHRA BKN035
     FM010600 13010KT P6SM BKN080=

USA.gov is the U.S. government's official web portal to all federal, state and local government web resources and services.